| time (UTC) | temp F | wind direction | speed MPH | gust MPH | rain 1hr in | rain 24hr in | rain mn in | humidity % | barometer mb |
| 20260904211954 | 94 | 172 | 4.0 | 6.0 | 0.00 | 0.00 | 0.04 | 47 | 1013.0 |
| 20260904211454 | 94 | 182 | 5.0 | 9.0 | 0.00 | 0.00 | 0.04 | 46 | 1013.0 |
| 20260904210954 | 94 | 178 | 3.0 | 4.0 | 0.00 | 0.00 | 0.04 | 47 | 1013.0 |
| 20260904210454 | 93 | 194 | 2.0 | 4.0 | 0.00 | 0.00 | 0.04 | 49 | 1013.0 |
| 20260904205955 | 93 | 172 | 4.0 | 6.0 | 0.00 | 0.00 | 0.04 | 50 | 1013.0 |
| 20260904205455 | 94 | 185 | 4.0 | 5.0 | 0.00 | 0.00 | 0.04 | 49 | 1013.0 |
| 20260904204954 | 94 | 195 | 2.0 | 4.0 | 0.00 | 0.00 | 0.04 | 50 | 1013.0 |
| 20260904204455 | 94 | 172 | 4.0 | 5.0 | 0.00 | 0.00 | 0.04 | 48 | 1013.0 |
| 20260904203955 | 94 | 167 | 4.0 | 6.0 | 0.00 | 0.00 | 0.04 | 49 | 1013.0 |
| 20260904203456 | 94 | 172 | 3.0 | 6.0 | 0.00 | 0.00 | 0.04 | 49 | 1013.0 |
| 20260904202955 | 94 | 176 | 3.0 | 6.0 | 0.00 | 0.00 | 0.04 | 49 | 1013.0 |
| 20260904202454 | 93 | 183 | 2.0 | 4.0 | 0.00 | 0.00 | 0.04 | 50 | 1013.0 |
| 20260904201954 | 93 | 186 | 2.0 | 4.0 | 0.00 | 0.00 | 0.04 | 51 | 1013.0 |
| 20260904201454 | 92 | 157 | 2.0 | 4.0 | 0.00 | 0.00 | 0.04 | 52 | 1013.0 |
| 20260904200954 | 92 | 169 | 3.0 | 6.0 | 0.00 | 0.00 | 0.04 | 54 | 1014.0 |
| 20260904200455 | 92 | 178 | 3.0 | 7.0 | 0.00 | 0.00 | 0.04 | 53 | 1014.0 |
| 20260904195954 | 92 | 131 | 1.0 | 2.0 | 0.00 | 0.00 | 0.04 | 54 | 1014.0 |
| 20260904195454 | 92 | 186 | 2.0 | 3.0 | 0.00 | 0.00 | 0.04 | 55 | 1014.0 |
| 20260904194954 | 92 | 171 | 3.0 | 6.0 | 0.00 | 0.00 | 0.04 | 55 | 1014.0 |
| 20260904194454 | 92 | 176 | 4.0 | 7.0 | 0.00 | 0.00 | 0.04 | 55 | 1014.0 |
| 20260904193954 | 91 | 173 | 4.0 | 9.0 | 0.00 | 0.00 | 0.04 | 54 | 1014.0 |
| 20260904193455 | 91 | 175 | 3.0 | 4.0 | 0.00 | 0.00 | 0.04 | 55 | 1014.0 |
| 20260904192955 | 91 | 185 | 3.0 | 8.0 | 0.00 | 0.00 | 0.04 | 55 | 1014.0 |
| 20260904192454 | 90 | 150 | 3.0 | 5.0 | 0.00 | 0.00 | 0.04 | 56 | 1014.0 |
| 20260904191954 | 90 | 183 | 4.0 | 8.0 | 0.00 | 0.00 | 0.04 | 55 | 1014.0 |
| 20260904191455 | 90 | 162 | 3.0 | 7.0 | 0.00 | 0.00 | 0.04 | 60 | 1014.0 |
| 20260904190954 | 90 | 187 | 4.0 | 6.0 | 0.00 | 0.00 | 0.04 | 58 | 1014.0 |
| 20260904190454 | 89 | 180 | 4.0 | 6.0 | 0.00 | 0.00 | 0.04 | 61 | 1014.0 |
| 20260904185954 | 88 | 137 | 2.0 | 2.0 | 0.00 | 0.00 | 0.04 | 61 | 1014.0 |
| 20260904185454 | 88 | 182 | 2.0 | 4.0 | 0.00 | 0.00 | 0.04 | 63 | 1014.0 |
| 20260904184956 | 87 | 188 | 2.0 | 5.0 | 0.00 | 0.00 | 0.04 | 63 | 1015.0 |
| 20260904184454 | 87 | 159 | 2.0 | 6.0 | 0.00 | 0.00 | 0.04 | 64 | 1015.0 |
| 20260904183955 | 87 | 175 | 2.0 | 5.0 | 0.00 | 0.00 | 0.04 | 64 | 1015.0 |
| 20260904183454 | 87 | 177 | 3.0 | 6.0 | 0.00 | 0.00 | 0.04 | 64 | 1015.0 |
| 20260904182954 | 87 | 182 | 2.0 | 3.0 | 0.00 | 0.00 | 0.04 | 65 | 1015.0 |
| 20260904182455 | 87 | 175 | 3.0 | 6.0 | 0.00 | 0.00 | 0.04 | 66 | 1015.0 |
| 20260904181954 | 87 | 170 | 3.0 | 6.0 | 0.00 | 0.00 | 0.04 | 66 | 1015.0 |
| 20260904181454 | 87 | 189 | 3.0 | 6.0 | 0.00 | 0.00 | 0.04 | 65 | 1015.0 |
| 20260904180954 | 86 | 170 | 3.0 | 5.0 | 0.00 | 0.00 | 0.04 | 66 | 1015.0 |
| 20260904180454 | 87 | 160 | 3.0 | 7.0 | 0.00 | 0.00 | 0.04 | 65 | 1015.0 |
| 20260904175954 | 87 | 178 | 3.0 | 5.0 | 0.00 | 0.00 | 0.04 | 65 | 1015.0 |
| 20260904175454 | 86 | 171 | 4.0 | 7.0 | 0.00 | 0.00 | 0.04 | 65 | 1015.0 |
| 20260904174955 | 87 | 177 | 2.0 | 4.0 | 0.00 | 0.00 | 0.04 | 65 | 1015.0 |
| 20260904174454 | 87 | 169 | 3.0 | 5.0 | 0.00 | 0.00 | 0.04 | 59 | 1015.0 |
| 20260904173954 | 87 | 179 | 2.0 | 4.0 | 0.00 | 0.00 | 0.04 | 62 | 1015.0 |
| 20260904173454 | 87 | 155 | 1.0 | 2.0 | 0.00 | 0.00 | 0.04 | 62 | 1015.0 |
| 20260904172956 | 87 | 172 | 3.0 | 7.0 | 0.00 | 0.00 | 0.04 | 63 | 1015.0 |
| 20260904172457 | 87 | 150 | 1.0 | 3.0 | 0.00 | 0.00 | 0.04 | 67 | 1015.0 |
| 20260904171955 | 87 | 156 | 2.0 | 5.0 | 0.00 | 0.00 | 0.04 | 70 | 1015.0 |
| 20260904171455 | 87 | 164 | 2.0 | 3.0 | 0.00 | 0.00 | 0.04 | 69 | 1015.0 |
| 20260904170955 | 86 | 189 | 2.0 | 4.0 | 0.00 | 0.00 | 0.04 | 69 | 1015.0 |
| 20260904170457 | 86 | 175 | 3.0 | 4.0 | 0.00 | 0.00 | 0.04 | 70 | 1015.0 |
| 20260904165954 | 86 | 179 | 3.0 | 4.0 | 0.00 | 0.00 | 0.04 | 69 | 1015.0 |
| 20260904165455 | 86 | 173 | 3.0 | 6.0 | 0.00 | 0.00 | 0.04 | 70 | 1015.0 |
| 20260904164956 | 86 | 185 | 2.0 | 3.0 | 0.00 | 0.00 | 0.04 | 71 | 1015.0 |
| 20260904164454 | 86 | 136 | 1.0 | 2.0 | 0.00 | 0.00 | 0.04 | 70 | 1015.0 |
| 20260904163955 | 86 | 168 | 2.0 | 5.0 | 0.00 | 0.00 | 0.04 | 71 | 1015.0 |
| 20260904163454 | 86 | 168 | 2.0 | 3.0 | 0.00 | 0.00 | 0.04 | 71 | 1015.0 |
| 20260904162954 | 85 | 218 | 1.0 | 3.0 | 0.00 | 0.00 | 0.04 | 71 | 1015.0 |
| 20260904162455 | 85 | 166 | 2.0 | 3.0 | 0.00 | 0.00 | 0.04 | 72 | 1015.0 |
| 20260904161958 | 85 | 181 | 2.0 | 6.0 | 0.00 | 0.00 | 0.04 | 72 | 1015.0 |
| 20260904161454 | 85 | 182 | 3.0 | 5.0 | 0.00 | 0.00 | 0.04 | 72 | 1015.0 |
| 20260904160954 | 85 | 207 | 2.0 | 4.0 | 0.00 | 0.00 | 0.04 | 73 | 1015.0 |
| 20260904160455 | 85 | 169 | 2.0 | 3.0 | 0.00 | 0.00 | 0.04 | 73 | 1015.0 |
| 20260904155954 | 85 | 176 | 3.0 | 6.0 | 0.00 | 0.00 | 0.04 | 72 | 1015.0 |
| 20260904155454 | 85 | 167 | 4.0 | 7.0 | 0.00 | 0.00 | 0.04 | 72 | 1015.0 |
| 20260904154955 | 85 | 198 | 2.0 | 5.0 | 0.00 | 0.00 | 0.04 | 74 | 1015.0 |
| 20260904154454 | 85 | 190 | 2.0 | 4.0 | 0.00 | 0.00 | 0.04 | 74 | 1015.0 |
| 20260904153954 | 85 | 177 | 2.0 | 4.0 | 0.00 | 0.00 | 0.04 | 74 | 1015.0 |
| 20260904153455 | 85 | 172 | 4.0 | 6.0 | 0.00 | 0.00 | 0.04 | 74 | 1015.0 |
| 20260904152956 | 85 | 171 | 4.0 | 6.0 | 0.00 | 0.00 | 0.04 | 74 | 1015.0 |
| 20260904152456 | 84 | 195 | 2.0 | 4.0 | 0.00 | 0.00 | 0.04 | 76 | 1015.0 |
| 20260904151954 | 84 | 207 | 2.0 | 3.0 | 0.00 | 0.00 | 0.04 | 77 | 1015.0 |
| 20260904151455 | 84 | 181 | 4.0 | 7.0 | 0.00 | 0.00 | 0.04 | 76 | 1015.0 |
| 20260904150956 | 84 | 181 | 3.0 | 5.0 | 0.00 | 0.00 | 0.04 | 77 | 1015.0 |
| 20260904150454 | 84 | 166 | 3.0 | 6.0 | 0.00 | 0.00 | 0.04 | 77 | 1015.0 |
| 20260904145955 | 83 | 216 | 2.0 | 6.0 | 0.00 | 0.00 | 0.04 | 80 | 1015.0 |
| 20260904145456 | 82 | 200 | 2.0 | 3.0 | 0.00 | 0.00 | 0.04 | 81 | 1015.0 |
| 20260904144955 | 82 | 218 | 2.0 | 4.0 | 0.00 | 0.00 | 0.04 | 81 | 1015.0 |
| 20260904144454 | 82 | 201 | 2.0 | 4.0 | 0.00 | 0.00 | 0.04 | 81 | 1015.0 |
| 20260904143954 | 82 | 199 | 2.0 | 3.0 | 0.00 | 0.00 | 0.04 | 83 | 1015.0 |
| 20260904143455 | 81 | 174 | 2.0 | 5.0 | 0.00 | 0.00 | 0.04 | 84 | 1015.0 |
| 20260904142955 | 81 | 192 | 2.0 | 4.0 | 0.00 | 0.00 | 0.04 | 85 | 1015.0 |
| 20260904142455 | 81 | 171 | 2.0 | 4.0 | 0.00 | 0.00 | 0.04 | 85 | 1015.0 |
| 20260904141956 | 81 | 206 | 2.0 | 4.0 | 0.00 | 0.00 | 0.04 | 87 | 1015.0 |
| 20260904141454 | 81 | 192 | 1.0 | 2.0 | 0.00 | 0.00 | 0.04 | 87 | 1015.0 |
| 20260904140955 | 81 | 243 | 1.0 | 3.0 | 0.00 | 0.00 | 0.04 | 88 | 1015.0 |
| 20260904140454 | 81 | 194 | 2.0 | 4.0 | 0.00 | 0.00 | 0.04 | 88 | 1015.0 |
| 20260904135954 | 81 | 175 | 1.0 | 2.0 | 0.00 | 0.00 | 0.04 | 89 | 1015.0 |
| 20260904135454 | 80 | 205 | 2.0 | 4.0 | 0.00 | 0.00 | 0.04 | 90 | 1015.0 |
| 20260904134954 | 80 | 259 | 1.0 | 2.0 | 0.00 | 0.00 | 0.04 | 90 | 1015.0 |
| 20260904134455 | 80 | 221 | 1.0 | 3.0 | 0.00 | 0.00 | 0.04 | 91 | 1015.0 |
| 20260904133955 | 80 | 214 | 2.0 | 4.0 | 0.00 | 0.00 | 0.04 | 91 | 1015.0 |
| 20260904133500 | 80 | 196 | 2.0 | 3.0 | 0.00 | 0.00 | 0.04 | 92 | 1015.0 |
| 20260904132954 | 79 | 180 | 0.0 | 1.0 | 0.00 | 0.00 | 0.04 | 92 | 1015.0 |
| 20260904132454 | 79 | 248 | 1.0 | 2.0 | 0.00 | 0.00 | 0.04 | 92 | 1015.0 |
| 20260904131955 | 79 | 167 | 1.0 | 2.0 | 0.00 | 0.00 | 0.05 | 93 | 1015.0 |
| 20260904131454 | 79 | 194 | 1.0 | 2.0 | 0.00 | 0.00 | 0.05 | 93 | 1015.0 |
| 20260904130954 | 79 | 215 | 2.0 | 4.0 | 0.00 | 0.00 | 0.05 | 93 | 1014.0 |
| 20260904130454 | 79 | 174 | 2.0 | 5.0 | 0.00 | 0.00 | 0.05 | 93 | 1014.0 |
| 20260904125955 | 79 | 175 | 0.0 | 2.0 | 0.00 | 0.00 | 0.05 | 92 | 1015.0 |
| 20260904125454 | 79 | 200 | 2.0 | 2.0 | 0.04 | 0.00 | 0.05 | 92 | 1014.0 |
| 20260904124954 | 79 | 182 | 2.0 | 3.0 | 0.01 | 0.00 | 0.04 | 92 | 1014.0 |
| 20260904124456 | 79 | 171 | 2.0 | 4.0 | 0.00 | 0.00 | 0.04 | 92 | 1015.0 |
| 20260904123954 | 79 | 187 | 0.0 | 2.0 | 0.00 | 0.00 | 0.04 | 92 | 1015.0 |
| 20260904123454 | 79 | 172 | 1.0 | 2.0 | 0.05 | 0.00 | 0.03 | 92 | 1015.0 |
| 20260904122954 | 79 | 176 | 0.0 | 2.0 | 0.05 | 0.00 | 0.03 | 91 | 1015.0 |
| 20260904122454 | 79 | 216 | 0.0 | 1.0 | 0.06 | 0.00 | 0.02 | 91 | 1015.0 |
| 20260904121954 | 79 | 318 | 0.0 | 1.0 | 0.05 | 0.00 | 0.02 | 91 | 1015.0 |
| 20260904121455 | 79 | 98 | 0.0 | 1.0 | 0.02 | 0.00 | 0.02 | 91 | 1014.0 |
| 20260904120954 | 79 | 165 | 0.0 | 1.0 | 0.00 | 0.00 | 0.02 | 90 | 1014.0 |
| 20260904120454 | 79 | 202 | 1.0 | 3.0 | 0.00 | 0.00 | 0.01 | 90 | 1014.0 |
| 20260904115955 | 79 | 108 | 2.0 | 3.0 | 0.01 | 0.00 | 0.01 | 89 | 1014.0 |
| 20260904115454 | 79 | 145 | 0.0 | 2.0 | 0.05 | 0.00 | 0.01 | 89 | 1014.0 |
| 20260904114954 | 79 | 122 | 0.0 | 2.0 | 0.07 | 0.00 | 0.00 | 89 | 1014.0 |
| 20260904114455 | 79 | 93 | 0.0 | 1.0 | 0.00 | 0.00 | 0.00 | 89 | 1014.0 |
| 20260904113954 | 79 | 90 | 0.0 | 1.0 | 0.00 | 0.00 | 0.00 | 89 | 1014.0 |
| 20260904113454 | 79 | 88 | 1.0 | 2.0 | 0.00 | 0.00 | 0.00 | 88 | 1014.0 |
| 20260904112954 | 79 | 101 | 1.0 | 2.0 | 0.00 | 0.00 | 0.00 | 88 | 1014.0 |
| 20260904112455 | 79 | 126 | 1.0 | 2.0 | 0.00 | 0.00 | 0.00 | 88 | 1014.0 |
| 20260904111954 | 79 | 82 | 0.0 | 1.0 | 0.00 | 0.00 | 0.00 | 88 | 1014.0 |
| 20260904111455 | 79 | 360 | 0.0 | 0.0 | 0.00 | 0.00 | 0.00 | 88 | 1014.0 |
| 20260904111002 | 79 | 112 | 0.0 | 2.0 | 0.00 | 0.00 | 0.00 | 88 | 1014.0 |
| 20260904110455 | 79 | 109 | 0.0 | 2.0 | 0.00 | 0.00 | 0.00 | 87 | 1014.0 |
| 20260904105956 | 79 | 98 | 1.0 | 2.0 | 0.00 | 0.00 | 0.00 | 87 | 1014.0 |
| 20260904105454 | 79 | 129 | 1.0 | 2.0 | 0.00 | 0.00 | 0.00 | 87 | 1014.0 |
| 20260904104954 | 79 | 160 | 1.0 | 2.0 | 0.00 | 0.00 | 0.00 | 87 | 1014.0 |
| 20260904104454 | 80 | 114 | 1.0 | 3.0 | 0.00 | 0.00 | 0.00 | 87 | 1014.0 |
| 20260904103955 | 80 | 114 | 1.0 | 2.0 | 0.00 | 0.00 | 0.00 | 87 | 1014.0 |
| 20260904103454 | 80 | 145 | 0.0 | 2.0 | 0.00 | 0.00 | 0.00 | 86 | 1014.0 |
| 20260904102954 | 80 | 155 | 1.0 | 3.0 | 0.00 | 0.00 | 0.00 | 86 | 1014.0 |
| 20260904102454 | 80 | 142 | 2.0 | 4.0 | 0.00 | 0.00 | 0.00 | 86 | 1014.0 |
| 20260904101954 | 80 | 89 | 2.0 | 3.0 | 0.00 | 0.00 | 0.00 | 86 | 1013.0 |
| 20260904101455 | 80 | 144 | 1.0 | 2.0 | 0.00 | 0.00 | 0.00 | 86 | 1013.0 |
| 20260904100955 | 80 | 197 | 0.0 | 2.0 | 0.00 | 0.00 | 0.00 | 86 | 1013.0 |
| 20260904100454 | 80 | 194 | 1.0 | 2.0 | 0.00 | 0.00 | 0.00 | 86 | 1013.0 |
| 20260904095954 | 80 | 97 | 1.0 | 2.0 | 0.00 | 0.00 | 0.00 | 85 | 1013.0 |
| 20260904095454 | 80 | 132 | 1.0 | 2.0 | 0.00 | 0.00 | 0.00 | 85 | 1013.0 |
| 20260904094954 | 80 | 134 | 0.0 | 2.0 | 0.00 | 0.00 | 0.00 | 85 | 1013.0 |
| 20260904094455 | 80 | 88 | 1.0 | 3.0 | 0.00 | 0.00 | 0.00 | 85 | 1013.0 |
| 20260904093954 | 80 | 84 | 1.0 | 2.0 | 0.00 | 0.00 | 0.00 | 85 | 1013.0 |
| 20260904093454 | 80 | 140 | 1.0 | 2.0 | 0.00 | 0.00 | 0.00 | 85 | 1013.0 |
| 20260904092954 | 80 | 158 | 2.0 | 3.0 | 0.00 | 0.00 | 0.00 | 85 | 1013.0 |
| 20260904092454 | 80 | 164 | 1.0 | 2.0 | 0.00 | 0.00 | 0.00 | 85 | 1013.0 |
| 20260904091954 | 81 | 167 | 2.0 | 4.0 | 0.00 | 0.00 | 0.00 | 85 | 1013.0 |
| 20260904091455 | 81 | 175 | 1.0 | 3.0 | 0.00 | 0.00 | 0.00 | 85 | 1013.0 |
| 20260904090955 | 81 | 160 | 1.0 | 2.0 | 0.00 | 0.00 | 0.00 | 85 | 1013.0 |
| 20260904090454 | 81 | 184 | 1.0 | 2.0 | 0.00 | 0.00 | 0.00 | 84 | 1013.0 |
| 20260904085954 | 81 | 177 | 1.0 | 2.0 | 0.00 | 0.00 | 0.00 | 84 | 1013.0 |
| 20260904085454 | 81 | 172 | 1.0 | 3.0 | 0.00 | 0.00 | 0.00 | 84 | 1013.0 |
| 20260904084954 | 81 | 195 | 2.0 | 5.0 | 0.00 | 0.00 | 0.00 | 84 | 1013.0 |
| 20260904084454 | 81 | 167 | 0.0 | 2.0 | 0.00 | 0.00 | 0.00 | 84 | 1013.0 |
| 20260904083954 | 81 | 168 | 1.0 | 4.0 | 0.00 | 0.00 | 0.00 | 84 | 1013.0 |
| 20260904083454 | 81 | 174 | 3.0 | 6.0 | 0.00 | 0.00 | 0.00 | 84 | 1013.0 |
| 20260904082954 | 81 | 157 | 1.0 | 4.0 | 0.00 | 0.00 | 0.00 | 84 | 1013.0 |
| 20260904082454 | 81 | 170 | 1.0 | 2.0 | 0.00 | 0.00 | 0.00 | 84 | 1013.0 |
| 20260904081955 | 81 | 183 | 4.0 | 5.0 | 0.00 | 0.00 | 0.00 | 84 | 1013.0 |
| 20260904081454 | 81 | 176 | 2.0 | 4.0 | 0.00 | 0.00 | 0.00 | 83 | 1013.0 |
| 20260904080954 | 81 | 187 | 2.0 | 4.0 | 0.00 | 0.00 | 0.00 | 83 | 1013.0 |
| 20260904080454 | 81 | 182 | 3.0 | 5.0 | 0.00 | 0.00 | 0.00 | 83 | 1013.0 |
| 20260904075954 | 81 | 184 | 4.0 | 6.0 | 0.00 | 0.00 | 0.00 | 83 | 1013.0 |
| 20260904075455 | 81 | 182 | 3.0 | 6.0 | 0.00 | 0.00 | 0.00 | 83 | 1013.0 |
| 20260904074954 | 81 | 160 | 2.0 | 4.0 | 0.00 | 0.00 | 0.00 | 83 | 1013.0 |
| 20260904074454 | 81 | 95 | 2.0 | 6.0 | 0.00 | 0.00 | 0.00 | 82 | 1013.0 |
| 20260904073954 | 81 | 175 | 4.0 | 7.0 | 0.00 | 0.00 | 0.00 | 82 | 1013.0 |
| 20260904073454 | 81 | 173 | 3.0 | 6.0 | 0.00 | 0.00 | 0.00 | 82 | 1013.0 |
| 20260904072954 | 81 | 191 | 3.0 | 6.0 | 0.00 | 0.00 | 0.00 | 82 | 1013.0 |
| 20260904072454 | 81 | 184 | 3.0 | 5.0 | 0.00 | 0.00 | 0.00 | 82 | 1013.0 |
| 20260904071955 | 81 | 190 | 1.0 | 2.0 | 0.00 | 0.00 | 0.00 | 82 | 1013.0 |
| 20260904071454 | 81 | 172 | 2.0 | 3.0 | 0.00 | 0.00 | 0.00 | 82 | 1013.0 |
| 20260904070954 | 81 | 176 | 2.0 | 6.0 | 0.00 | 0.00 | 0.00 | 82 | 1014.0 |
| 20260904070454 | 81 | 191 | 2.0 | 4.0 | 0.00 | 0.00 | 0.00 | 82 | 1014.0 |
| 20260904065954 | 81 | 183 | 4.0 | 9.0 | 0.00 | 0.00 | 0.00 | 82 | 1014.0 |
| 20260904065454 | 81 | 173 | 2.0 | 4.0 | 0.00 | 0.00 | 0.00 | 82 | 1014.0 |
| 20260904064954 | 81 | 186 | 2.0 | 4.0 | 0.00 | 0.00 | 0.00 | 82 | 1014.0 |
| 20260904064455 | 81 | 184 | 3.0 | 4.0 | 0.00 | 0.00 | 0.00 | 81 | 1014.0 |
| 20260904063956 | 81 | 198 | 2.0 | 5.0 | 0.00 | 0.00 | 0.00 | 81 | 1014.0 |
| 20260904063456 | 81 | 149 | 2.0 | 4.0 | 0.00 | 0.00 | 0.00 | 81 | 1014.0 |
| 20260904062954 | 81 | 167 | 1.0 | 3.0 | 0.00 | 0.00 | 0.00 | 81 | 1014.0 |
| 20260904062455 | 81 | 186 | 2.0 | 5.0 | 0.00 | 0.00 | 0.00 | 81 | 1014.0 |
| 20260904061955 | 81 | 121 | 1.0 | 2.0 | 0.00 | 0.00 | 0.00 | 81 | 1014.0 |
| 20260904061455 | 81 | 164 | 2.0 | 3.0 | 0.00 | 0.00 | 0.00 | 81 | 1014.0 |
| 20260904060954 | 81 | 143 | 1.0 | 3.0 | 0.00 | 0.00 | 0.00 | 81 | 1014.0 |
| 20260904060457 | 81 | 181 | 1.0 | 3.0 | 0.00 | 0.00 | 0.00 | 81 | 1014.0 |
| 20260904055954 | 81 | 166 | 1.0 | 3.0 | 0.00 | 0.00 | 0.00 | 81 | 1014.0 |
| 20260904055454 | 81 | 147 | 1.0 | 2.0 | 0.00 | 0.00 | 0.00 | 81 | 1014.0 |
| 20260904054957 | 81 | 165 | 2.0 | 3.0 | 0.00 | 0.00 | 0.00 | 81 | 1014.0 |
| 20260904054454 | 81 | 124 | 1.0 | 3.0 | 0.00 | 0.00 | 0.00 | 80 | 1014.0 |
| 20260904053956 | 81 | 129 | 2.0 | 4.0 | 0.00 | 0.00 | 0.00 | 80 | 1014.0 |
| 20260904053454 | 81 | 152 | 2.0 | 5.0 | 0.00 | 0.00 | 0.00 | 80 | 1014.0 |
| 20260904052954 | 81 | 166 | 2.0 | 5.0 | 0.00 | 0.00 | 0.00 | 80 | 1014.0 |
| 20260904052454 | 81 | 143 | 2.0 | 5.0 | 0.00 | 0.00 | 0.00 | 80 | 1013.0 |
| 20260904051955 | 81 | 155 | 2.0 | 3.0 | 0.00 | 0.00 | 0.00 | 80 | 1013.0 |
| 20260904051454 | 81 | 139 | 2.0 | 3.0 | 0.00 | 0.00 | 0.00 | 79 | 1013.0 |
| 20260904050954 | 81 | 157 | 2.0 | 3.0 | 0.00 | 0.00 | 0.00 | 79 | 1013.0 |
| 20260904050454 | 81 | 144 | 1.0 | 3.0 | 0.00 | 0.00 | 0.00 | 79 | 1013.0 |
| 20260904045954 | 81 | 98 | 2.0 | 6.0 | 0.00 | 0.00 | 0.00 | 79 | 1013.0 |
| 20260904045455 | 81 | 110 | 2.0 | 4.0 | 0.00 | 0.00 | 0.00 | 79 | 1013.0 |
| 20260904044954 | 81 | 126 | 2.0 | 4.0 | 0.00 | 0.00 | 0.00 | 79 | 1013.0 |
| 20260904044454 | 81 | 139 | 1.0 | 4.0 | 0.00 | 0.00 | 0.00 | 79 | 1013.0 |
| 20260904043954 | 81 | 112 | 1.0 | 2.0 | 0.00 | 0.00 | 0.00 | 79 | 1013.0 |
| 20260904043454 | 81 | 123 | 2.0 | 3.0 | 0.00 | 0.00 | 0.00 | 79 | 1013.0 |
| 20260904042954 | 81 | 170 | 2.0 | 3.0 | 0.00 | 0.00 | 0.00 | 79 | 1013.0 |
| 20260904042454 | 81 | 131 | 2.0 | 2.0 | 0.00 | 0.00 | 0.00 | 79 | 1013.0 |
| 20260904041955 | 81 | 105 | 2.0 | 4.0 | 0.00 | 0.00 | 0.00 | 79 | 1013.0 |
| 20260904041454 | 81 | 95 | 2.0 | 3.0 | 0.00 | 0.00 | 0.00 | 78 | 1013.0 |
| 20260904040954 | 81 | 116 | 2.0 | 4.0 | 0.00 | 0.00 | 0.00 | 78 | 1013.0 |
| 20260904040454 | 81 | 114 | 2.0 | 4.0 | 0.00 | 0.00 | 0.00 | 78 | 1013.0 |
| 20260904035954 | 81 | 98 | 1.0 | 2.0 | 0.00 | 0.00 | 0.00 | 78 | 1013.0 |
| 20260904035455 | 81 | 109 | 1.0 | 2.0 | 0.00 | 0.00 | 0.00 | 77 | 1013.0 |
| 20260904034954 | 81 | 125 | 1.0 | 2.0 | 0.00 | 0.00 | 0.00 | 77 | 1013.0 |
| 20260904034454 | 81 | 131 | 1.0 | 2.0 | 0.00 | 0.00 | 0.00 | 77 | 1013.0 |
| 20260904033954 | 81 | 102 | 2.0 | 4.0 | 0.00 | 0.00 | 0.00 | 76 | 1013.0 |
| 20260904033454 | 81 | 89 | 3.0 | 5.0 | 0.00 | 0.00 | 0.00 | 76 | 1013.0 |
| 20260904032954 | 82 | 127 | 2.0 | 3.0 | 0.00 | 0.00 | 0.00 | 75 | 1013.0 |
| 20260904032455 | 82 | 115 | 2.0 | 4.0 | 0.00 | 0.00 | 0.00 | 74 | 1013.0 |
| 20260904031954 | 82 | 78 | 1.0 | 2.0 | 0.00 | 0.00 | 0.00 | 74 | 1013.0 |
| 20260904031454 | 82 | 160 | 2.0 | 5.0 | 0.00 | 0.00 | 0.00 | 74 | 1013.0 |
| 20260904030955 | 82 | 121 | 2.0 | 3.0 | 0.00 | 0.00 | 0.00 | 73 | 1013.0 |
| 20260904030455 | 82 | 79 | 1.0 | 3.0 | 0.00 | 0.00 | 0.00 | 73 | 1013.0 |
| 20260904025955 | 82 | 129 | 1.0 | 3.0 | 0.00 | 0.00 | 0.00 | 72 | 1013.0 |
| 20260904025454 | 82 | 86 | 0.0 | 1.0 | 0.00 | 0.00 | 0.00 | 72 | 1013.0 |
| 20260904024954 | 82 | 102 | 1.0 | 2.0 | 0.00 | 0.00 | 0.00 | 72 | 1013.0 |
| 20260904024454 | 83 | 108 | 1.0 | 2.0 | 0.00 | 0.00 | 0.00 | 72 | 1013.0 |
| 20260904023954 | 83 | 176 | 1.0 | 2.0 | 0.00 | 0.00 | 0.00 | 71 | 1013.0 |
| 20260904023454 | 83 | 97 | 1.0 | 3.0 | 0.00 | 0.00 | 0.00 | 71 | 1013.0 |
| 20260904022954 | 83 | 135 | 2.0 | 4.0 | 0.00 | 0.00 | 0.00 | 71 | 1013.0 |
| 20260904022454 | 83 | 133 | 2.0 | 3.0 | 0.00 | 0.00 | 0.00 | 70 | 1013.0 |
| 20260904021954 | 83 | 160 | 0.0 | 1.0 | 0.00 | 0.00 | 0.00 | 70 | 1013.0 |
| 20260904021455 | 83 | 126 | 1.0 | 3.0 | 0.00 | 0.00 | 0.00 | 69 | 1013.0 |
| 20260904020955 | 83 | 125 | 1.0 | 3.0 | 0.00 | 0.00 | 0.00 | 69 | 1012.0 |
| 20260904020454 | 83 | 93 | 2.0 | 4.0 | 0.00 | 0.00 | 0.00 | 69 | 1012.0 |
| 20260904015954 | 83 | 113 | 1.0 | 3.0 | 0.00 | 0.00 | 0.00 | 68 | 1012.0 |
| 20260904015454 | 83 | 98 | 2.0 | 4.0 | 0.00 | 0.00 | 0.00 | 68 | 1012.0 |
| 20260904014954 | 84 | 127 | 2.0 | 3.0 | 0.00 | 0.00 | 0.00 | 67 | 1012.0 |
| 20260904014454 | 84 | 107 | 1.0 | 2.0 | 0.00 | 0.00 | 0.00 | 67 | 1012.0 |
| 20260904013954 | 84 | 79 | 1.0 | 3.0 | 0.00 | 0.00 | 0.00 | 67 | 1012.0 |
| 20260904013454 | 84 | 121 | 2.0 | 4.0 | 0.00 | 0.00 | 0.00 | 66 | 1012.0 |
| 20260904012954 | 84 | 112 | 1.0 | 2.0 | 0.00 | 0.00 | 0.00 | 66 | 1012.0 |
| 20260904012454 | 84 | 90 | 2.0 | 3.0 | 0.00 | 0.00 | 0.00 | 66 | 1012.0 |
| 20260904011955 | 84 | 81 | 2.0 | 4.0 | 0.00 | 0.00 | 0.00 | 66 | 1012.0 |
| 20260904011454 | 84 | 117 | 2.0 | 4.0 | 0.00 | 0.00 | 0.00 | 65 | 1012.0 |
| 20260904010954 | 84 | 128 | 1.0 | 2.0 | 0.00 | 0.00 | 0.00 | 65 | 1012.0 |
| 20260904010454 | 85 | 90 | 2.0 | 3.0 | 0.00 | 0.00 | 0.00 | 65 | 1012.0 |
| 20260904005954 | 85 | 85 | 0.0 | 2.0 | 0.00 | 0.00 | 0.00 | 65 | 1012.0 |
| 20260904005455 | 85 | 89 | 2.0 | 5.0 | 0.00 | 0.00 | 0.00 | 65 | 1012.0 |
| 20260904004955 | 85 | 107 | 3.0 | 6.0 | 0.00 | 0.00 | 0.00 | 64 | 1012.0 |
| 20260904004455 | 85 | 125 | 3.0 | 6.0 | 0.00 | 0.00 | 0.00 | 64 | 1012.0 |
| 20260904003955 | 85 | 99 | 2.0 | 4.0 | 0.00 | 0.00 | 0.00 | 64 | 1012.0 |
| 20260904003455 | 86 | 133 | 2.0 | 4.0 | 0.00 | 0.00 | 0.00 | 65 | 1012.0 |
| 20260904002954 | 86 | 119 | 2.0 | 4.0 | 0.00 | 0.00 | 0.00 | 64 | 1012.0 |
| 20260904002455 | 87 | 86 | 2.0 | 4.0 | 0.00 | 0.00 | 0.00 | 63 | 1012.0 |
| 20260904001954 | 87 | 106 | 1.0 | 3.0 | 0.00 | 0.00 | 0.00 | 63 | 1012.0 |
| 20260904001454 | 87 | 88 | 1.0 | 4.0 | 0.00 | 0.00 | 0.00 | 62 | 1012.0 |
| 20260904000954 | 88 | 137 | 2.0 | 4.0 | 0.00 | 0.00 | 0.00 | 62 | 1012.0 |
| 20260904000455 | 88 | 114 | 1.0 | 2.0 | 0.00 | 0.00 | 0.00 | 62 | 1012.0 |
| 20260903235955 | 88 | 100 | 2.0 | 4.0 | 0.00 | 0.00 | 0.00 | 61 | 1012.0 |
| 20260903235455 | 89 | 155 | 2.0 | 4.0 | 0.00 | 0.00 | 0.00 | 61 | 1012.0 |
| 20260903234954 | 89 | 80 | 3.0 | 6.0 | 0.00 | 0.00 | 0.00 | 61 | 1012.0 |
| 20260903234454 | 89 | 87 | 3.0 | 7.0 | 0.00 | 0.00 | 0.00 | 60 | 1012.0 |
| 20260903233954 | 89 | 91 | 3.0 | 5.0 | 0.00 | 0.00 | 0.00 | 60 | 1012.0 |
| 20260903233010 | 89 | 116 | 2.0 | 4.0 | 0.00 | 0.00 | 0.00 | 60 | 1011.0 |
| 20260903232454 | 89 | 132 | 2.0 | 4.0 | 0.00 | 0.00 | 0.00 | 61 | 1011.0 |
| 20260903231954 | 90 | 86 | 2.0 | 6.0 | 0.00 | 0.00 | 0.00 | 62 | 1011.0 |
| 20260903231454 | 90 | 86 | 3.0 | 5.0 | 0.00 | 0.00 | 0.00 | 61 | 1011.0 |
| 20260903230954 | 91 | 82 | 2.0 | 4.0 | 0.00 | 0.00 | 0.00 | 61 | 1011.0 |
| 20260903230454 | 91 | 106 | 2.0 | 5.0 | 0.00 | 0.00 | 0.00 | 60 | 1011.0 |
| 20260903225954 | 92 | 137 | 3.0 | 4.0 | 0.00 | 0.00 | 0.00 | 59 | 1011.0 |
| 20260903225454 | 92 | 94 | 3.0 | 7.0 | 0.00 | 0.00 | 0.00 | 58 | 1011.0 |
| 20260903224955 | 92 | 110 | 3.0 | 5.0 | 0.00 | 0.00 | 0.00 | 58 | 1011.0 |
| 20260903224454 | 92 | 103 | 4.0 | 6.0 | 0.00 | 0.00 | 0.00 | 60 | 1011.0 |
| 20260903223955 | 93 | 92 | 4.0 | 8.0 | 0.00 | 0.00 | 0.00 | 61 | 1011.0 |
| 20260903223454 | 93 | 97 | 3.0 | 5.0 | 0.00 | 0.00 | 0.00 | 59 | 1011.0 |
| 20260903222954 | 93 | 91 | 2.0 | 5.0 | 0.00 | 0.00 | 0.00 | 58 | 1011.0 |
| 20260903222457 | 92 | 74 | 4.0 | 7.0 | 0.00 | 0.00 | 0.00 | 58 | 1011.0 |
| 20260903221955 | 92 | 85 | 4.0 | 8.0 | 0.00 | 0.00 | 0.00 | 59 | 1011.0 |
| 20260903221454 | 92 | 84 | 4.0 | 7.0 | 0.00 | 0.00 | 0.00 | 60 | 1011.0 |
| 20260903220954 | 92 | 85 | 4.0 | 7.0 | 0.00 | 0.00 | 0.00 | 59 | 1011.0 |
| 20260903220454 | 93 | 98 | 3.0 | 6.0 | 0.00 | 0.00 | 0.00 | 59 | 1011.0 |
| 20260903215954 | 94 | 99 | 3.0 | 6.0 | 0.00 | 0.00 | 0.00 | 57 | 1011.0 |
| 20260903215454 | 93 | 111 | 2.0 | 3.0 | 0.00 | 0.00 | 0.00 | 57 | 1011.0 |
| 20260903214954 | 93 | 87 | 2.0 | 5.0 | 0.00 | 0.00 | 0.00 | 58 | 1011.0 |
| 20260903214454 | 94 | 90 | 3.0 | 5.0 | 0.00 | 0.00 | 0.00 | 55 | 1011.0 |
| 20260903213954 | 94 | 108 | 2.0 | 4.0 | 0.00 | 0.00 | 0.00 | 53 | 1011.0 |
| 20260903213454 | 94 | 96 | 2.0 | 6.0 | 0.00 | 0.00 | 0.00 | 53 | 1011.0 |
| 20260903212954 | 94 | 119 | 2.0 | 4.0 | 0.00 | 0.00 | 0.00 | 54 | 1011.0 |
| 20260903212454 | 94 | 126 | 2.0 | 3.0 | 0.00 | 0.00 | 0.00 | 54 | 1011.0 |